Aerei

Full Version   Print   Search   Utenti   Join     Share : FacebookTwitter
Pages: [1], 2, 3, 4
  1. MESSERSCHMITT P-1101 V-1 (1 reply, to: 10/15/2021 12:34 PM)
  2. YAKOVLEV YAK-23 FLORA (5 replies, to: 10/15/2021 9:17 AM)
  3. NAKAJIMA KI-84 HAYATE (FRANK) (10 replies, to: 10/8/2021 10:16 PM)
  4. FIAT CR 42 DB (9 replies, to: 10/7/2021 11:29 PM)
  5. WELLINGTON GR XIV (2 replies, to: 10/3/2021 9:31 AM)
  6. HANDLEY PAGE 0/400 1917 (4 replies, to: 9/9/2021 8:31 AM)
  7. SOWPWITH PUP 1916 (3 replies, to: 8/31/2021 9:33 PM)
  8. MACCHI MC 205 VELTRO (9 replies, to: 8/29/2021 6:38 PM)
  9. SAAB J 29 TUNNAN (1 reply, to: 8/16/2021 8:57 AM)
  10. SAAB J-21R (2 replies, to: 8/8/2021 8:06 AM)
  11. CURTISS P-40B SOVIET (5 replies, to: 8/2/2021 7:11 PM)
  12. CAPRONI CA 310 LIBECCIO (5 replies, to: 7/21/2021 8:25 AM)
  13. ZEKE (4 replies, to: 7/20/2021 10:39 PM)
  14. YAKOVLEV YAK 3 (4 replies, to: 7/5/2021 9:05 AM)
  15. FOCKE WULF FW 190 F-8 (5 replies, to: 7/1/2021 11:37 AM)
  16. FAIREY FULMAR (1 reply, to: 6/8/2021 10:02 AM)
  17. BRISTOL BEAUFORT (4 replies, to: 6/8/2021 9:49 AM)
  18. HENSCHEL HS 123 (1 reply, to: 5/29/2021 5:17 PM)
  19. FISCHER P-75A EAGLE (3 replies, to: 5/21/2021 7:19 PM)
  20. N. A. B-45A TORNADO (18 replies, to: 5/21/2021 9:06 AM)
  21. Me 110 E (4 replies, to: 5/15/2021 11:29 PM)
  22. Bf 109 E 1/48 (7 replies, to: 5/14/2021 5:21 PM)
  23. F-4J PHANTOM II 1969 (1 reply, to: 4/27/2021 7:14 PM)
  24. NORTHROP-McDONNEL DOUGLAS YF-23 (2 replies, to: 4/19/2021 10:37 AM)
  25. F3H DEMON (1 reply, to: 4/9/2021 5:41 PM)
  26. F. AC-119 GUNSHIP (3 replies, to: 3/31/2021 8:31 PM)
  27. IMAM RO 57 (1 reply, to: 3/25/2021 7:17 PM)
  28. BLHOM VOSS BV 141 (6 replies, to: 3/25/2021 9:18 AM)
  29. HENSCHEL HS 129 A/B-2/B-3 (3 replies, to: 3/23/2021 7:05 PM)
  30. KAWASAKI KI 61 HIEN e KI 100 (1 reply, to: 2/28/2021 10:17 AM)
  31. H.P. 52 HAMPDEN (1 reply, to: 2/21/2021 3:24 PM)
  32. C.R.D.A. CANT Z 501 GABBIANO (19 replies, to: 2/19/2021 8:14 PM)
  33. LANCASTER B.I SPECIAL/B.III (2 replies, to: 2/2/2021 3:42 PM)
  34. DE HAVILLAND VENOM (8 replies, to: 1/31/2021 11:35 AM)
  35. AICHI M6A SEIRAN (6 replies, to: 1/22/2021 4:11 PM)
  36. GRUMMAN F6F HELLCAT (8 replies, to: 1/18/2021 8:36 AM)
  37. REGGIANE 2005 SAGITTARIO - 1/72 (3 replies, to: 1/16/2021 3:37 PM)
  38. Mc Donnell F2H-2P BANSHEE (31 replies, to: 1/13/2021 1:05 AM)
  39. GLOSTER JAVELIN (3 replies, to: 1/11/2021 7:38 PM)
  40. F18 d/e kestrels revell 1/72 (3 replies, to: 1/9/2021 4:33 PM)
  41. MITSUBISHI KI-67 HIRYU (PEGGY) (3 replies, to: 1/4/2021 9:26 AM)
  42. CENTAURO vs MUSTANG (4 replies, to: 1/3/2021 3:38 PM)
  43. Nakajima Kate B5N1 !/72 (10 replies, to: 1/1/2021 8:28 PM)
  44. BLACKBURN SHARK II (5 replies, to: 12/29/2020 11:33 AM)
  45. Bf 110-C4 Italeri 1/72 (6 replies, to: 12/12/2020 9:13 AM)
  46. GRUMMAN F9F PANTHER (5 replies, to: 12/11/2020 11:51 AM)
  47. 190 (17 replies, to: 12/11/2020 8:52 AM)
  48. RUFE (15 replies, to: 12/8/2020 2:40 PM)
  49. FOKKER D XXI 1940 (3 replies, to: 12/7/2020 8:12 AM)
  50. HANDLEY PAGE HP. 52 HAMPDEN (10 replies, to: 11/27/2020 9:29 AM)
  51. LAVOCHIN LA 5 e LA 5FN (3 replies, to: 11/21/2020 6:15 PM)
  52. Hawker Hurricane Mk I (8 replies, to: 11/21/2020 12:07 PM)
  53. BOEING B-17 F ASSEMBLY SHIP (11 replies, to: 11/12/2020 9:45 AM)
  54. B&V 155 (6 replies, to: 11/8/2020 4:28 PM)
  55. 70th BATTLE FOR MALTA ANNIVERSARY Re 2001 vs SPITFIRE Mk Vc (12 replies, to: 10/29/2020 10:59 PM)
  56. DIFESA DI LONDRA (4 replies, to: 10/21/2020 8:15 PM)
  57. HEINKEL HE 70 ungherese (3 replies, to: 10/15/2020 5:17 PM)
  58. KAWASAKI KI-100 (12 replies, to: 10/15/2020 10:50 AM)
  59. NAKAJIMA B5N KATE (10 replies, to: 10/13/2020 5:01 PM)
  60. SAVOIA MARCHETTI S.65 (6 replies, to: 10/5/2020 11:37 PM)
  61. FIAT G 55 - ANR (4 replies, to: 10/4/2020 12:59 PM)
  62. PETLYAKOV Pe-2 Peshka (3 replies, to: 8/31/2020 8:37 AM)
  63. MESSERSCHMITT Me 262A 1945 (8 replies, to: 8/28/2020 4:29 PM)
  64. FOKKER T. V (7 replies, to: 8/26/2020 2:36 PM)
  65. NAKAJIMA KI-27 NATE (6 replies, to: 8/22/2020 8:13 PM)
  66. FIAT G-91 TIGER MEET 1997 (3 replies, to: 8/18/2020 9:44 PM)
  67. Junker 88 (5 replies, to: 8/18/2020 9:42 PM)
  68. M. BLOCH MB 210 (1 reply, to: 7/15/2020 9:45 PM)
  69. D. AD-5 SKYRAIDER (4 replies, to: 7/14/2020 11:38 PM)
  70. FIAT G-50 bis FRECCIA (1 reply, to: 6/29/2020 8:51 AM)
  71. KYUSHU Q1W-1 LORNA (1 reply, to: 6/22/2020 8:21 AM)
  72. D. MIRAGE IVA (3 replies, to: 6/20/2020 8:21 AM)
  73. HAWKER HURRICANE (6 replies, to: 6/19/2020 1:44 PM)
  74. FAIREY FULMAR (3 replies, to: 6/5/2020 8:05 PM)
  75. F4U CORSAIR CAPTURED (32 replies, to: 6/5/2020 8:03 PM)
  76. BREWSTER F2A BUFFALO (1 reply, to: 5/30/2020 8:18 AM)
  77. DORNIER Do J/15 WAL (balena) (5 replies, to: 5/23/2020 1:54 PM)
  78. B-17F "MENPHIS BELLE" (2 replies, to: 5/12/2020 9:49 AM)
  79. Restauro su47 berkut hobbyboss 1 72 what -if (5 replies, to: 5/10/2020 7:47 PM)
  80. Sukhoi su-34 italeri 1/72 (4 replies, to: 5/10/2020 6:54 PM)
  81. F/A-18 HORNET "BLUE ANGELS" (1 reply, to: 5/5/2020 8:32 AM)
  82. MACCHI M 5 1917 (2 replies, to: 4/28/2020 5:44 PM)
  83. REPUBLIC P-47 THUNDERBOLT (3 replies, to: 4/20/2020 11:48 PM)
  84. BLOCH MB 152 (11 replies, to: 4/19/2020 8:58 AM)
  85. CH-47 CHINOOK (4 replies, to: 4/13/2020 2:39 PM)
  86. MC 202 FOLGORE (13 replies, to: 3/31/2020 9:46 PM)
  87. JU-87B-3 STUKA Nordafrica (5 replies, to: 3/31/2020 10:23 AM)
  88. FIAT G-91 R (4 replies, to: 3/24/2020 12:56 PM)
  89. I CINESI (15 replies, to: 3/22/2020 4:51 PM)
  90. FW 190F-8 ANZIO '44 (6 replies, to: 3/11/2020 2:07 PM)
  91. RED ARROWS GNAT+HAWK (6 replies, to: 2/24/2020 12:37 PM)
  92. REGGIANE RE 2000/2001/2002/2003/2005 (55 replies, to: 2/13/2020 10:31 PM)
  93. CANT Z 504 (3 replies, to: 2/6/2020 8:42 AM)
  94. HEINKEL HE 111H22 con V1 (13 replies, to: 2/4/2020 9:55 AM)
  95. YAKOVLEV YAK 2 (1 reply, to: 1/29/2020 3:13 PM)
  96. F-84F THUNDERSTREAK DIAVOLI ROSSI (11 replies, to: 1/27/2020 3:22 PM)
  97. BEAUFIGHTER VIc e Ic britannico/italiano (2 replies, to: 1/26/2020 9:21 AM)
  98. PZL P.11C POLACCO/RUMENO (2 replies, to: 1/14/2020 5:26 PM)
  99. STUKA SHARKMOUTH (12 replies, to: 1/10/2020 6:41 PM)
  100. BREDA 88B - Lince (17 replies, to: 1/10/2020 10:28 AM)
  101. JUNKERS JU 87 STUKA (1 reply, to: 12/18/2019 6:14 PM)
  102. Consiglio per Kit 1/48 sdb-3 dauntless (3 replies, to: 12/17/2019 2:00 PM)
  103. FIESLER Fi 156 STORCH (4 replies, to: 12/16/2019 5:58 PM)
  104. TEMPEST CAPTURED (3 replies, to: 12/10/2019 5:27 PM)
  105. IL TEMPEST DI P. CLOSTERMANN (5 replies, to: 12/10/2019 5:21 PM)
  106. B. P. P.82 DEFIANT (17 replies, to: 12/3/2019 7:51 PM)
  107. MORANE SAUNIER MS 406 (2 replies, to: 11/27/2019 6:20 PM)
  108. MITSUBISHI G4M BETTY (10 replies, to: 11/26/2019 7:41 PM)
  109. P-38F LIGHTING ITALY (16 replies, to: 11/26/2019 9:14 AM)
  110. MOSQUITO MOLINS (3 replies, to: 11/18/2019 12:23 PM)
  111. SEVERSKY P-35 (3 replies, to: 11/17/2019 4:37 PM)
  112. NORTHROP XB-35 FLYNG WING (8 replies, to: 11/13/2019 12:52 PM)
  113. CURTISS SOC 3 SEAGULL (1 reply, to: 10/29/2019 10:07 AM)
  114. MARTIN P6M SEAMASTER (3 replies, to: 10/16/2019 1:47 PM)
  115. MARTIN P6M SEAMASTER (1 reply, to: 10/16/2019 8:57 AM)
  116. DEWOITINE D 520 (1 reply, to: 10/8/2019 2:33 PM)
  117. FAIREY SWORDFISH (10 replies, to: 9/29/2019 10:20 PM)
  118. Il BOULTON PAUL P.82 DEFIANT (6 replies, to: 9/29/2019 11:33 AM)
  119. MARTIN 167 MARYLAND (1 reply, to: 9/13/2019 10:31 AM)
  120. AVRO 504 K (8 replies, to: 8/30/2019 11:46 PM)
  121. Me 262 A1-A-U5 (18 replies, to: 7/21/2019 7:11 PM)
  122. MITSUBISHI J8M SHUSUI (5 replies, to: 7/21/2019 9:30 AM)
  123. MARTIN B-26 MARAUDER (3 replies, to: 6/30/2019 8:10 PM)
  124. D4Y-1 SUISEI (2 replies, to: 6/19/2019 12:48 PM)
  125. SUKHOI SU 2 (4 replies, to: 6/13/2019 1:11 PM)
  126. IL CACCIA CHE HA VINTO LA II GUERRA MONDIALE (5 replies, to: 6/12/2019 9:53 AM)
  127. B-17G LITTLE MISS MISCHIEF (10 replies, to: 6/11/2019 8:00 AM)
  128. Il North American B-25 MITCHELL (1 reply, to: 5/19/2019 6:21 PM)
  129. MESSERSCHMITT BF 110 (23 replies, to: 5/15/2019 6:17 PM)
  130. BF 110C3 IRAKENO (2 replies, to: 5/15/2019 4:24 PM)
  131. POLIKARPOV I-16 RATA/ I-180 3 prototipo (2 replies, to: 5/1/2019 8:21 AM)
  132. ILYUSHIN IL-2 STURMOVIK (2 replies, to: 4/29/2019 4:11 PM)
  133. IMAM RO 44 1941 (7 replies, to: 4/8/2019 7:28 PM)
  134. AERMACCHI M.B.-339 (2 replies, to: 3/15/2019 7:04 PM)
  135. FW 190 UNGHERESE (2 replies, to: 3/10/2019 6:41 PM)
  136. BLENHEIM ITALY (10 replies, to: 2/21/2019 12:35 PM)
  137. BRISTOL BLENHEIM Mk IF (4 replies, to: 2/18/2019 11:01 AM)
  138. BRISTOL BLENHEIM Mk IF (1 reply, to: 2/17/2019 5:18 PM)
  139. MC 202 FOLGORE BRITISH (2 replies, to: 2/15/2019 7:57 AM)
  140. FIAT G 50 VELOCE (14 replies, to: 2/10/2019 4:47 PM)
  141. LOCKEED C-130 HERCULES 46 AEROBRIGATA PISA-S.GIUSTO (24 replies, to: 1/29/2019 9:20 AM)
  142. LeO 451 ITALY (11 replies, to: 1/18/2019 11:08 PM)
  143. F6F HELLCAT (34 replies, to: 1/15/2019 4:09 PM)
  144. BREGUET 693 ITALY (33 replies, to: 1/15/2019 8:47 AM)
  145. P-51B CATTURATO JAPAN (20 replies, to: 1/14/2019 8:48 AM)
  146. SKYHAWK OA-4M (5 replies, to: 1/12/2019 7:50 PM)
  147. LIBERATOR ITALY (9 replies, to: 1/10/2019 8:34 AM)
  148. HEINKEL He 115 (10 replies, to: 12/27/2018 7:56 PM)
  149. KI-44 SHOKI CAPTURED (4 replies, to: 12/25/2018 2:32 PM)
  150. Me 262 (9 replies, to: 12/24/2018 6:07 PM)
  151. HP 50 HEYFORD (10 replies, to: 12/18/2018 2:40 PM)
  152. BRISTOL BEAUFORT (2 replies, to: 12/4/2018 3:11 PM)
  153. BRISTOL BEAUFIGHTER (7 replies, to: 12/2/2018 2:49 PM)
  154. BRISTOL BUCKINGHAM (15 replies, to: 12/1/2018 3:08 PM)
  155. P-40B CAPTURED ITALY (6 replies, to: 11/27/2018 6:13 PM)
  156. MITSUBISHI KI-21 SALLY (12 replies, to: 11/23/2018 7:41 PM)
  157. McDONNEL DOUGLAS F-15 EAGLE un classico dell'intercettazione (30 replies, to: 11/20/2018 7:13 PM)
  158. CH-47 CHINOOK (7 replies, to: 11/19/2018 1:59 PM)
  159. AC-47 GUNSHIP (7 replies, to: 11/15/2018 8:21 PM)
  160. MAVAG HEJA II (3 replies, to: 11/5/2018 5:50 PM)
  161. F-21/KFIR LION C.1 (8 replies, to: 10/30/2018 7:46 AM)
  162. A-4 SKYHAWK BLUE ANGELS (2 replies, to: 10/20/2018 8:32 AM)
  163. MIRAGE F1 (5 replies, to: 10/16/2018 5:43 PM)
  164. SVA 5 (1 reply, to: 10/12/2018 11:53 AM)
  165. MESSERSCHMITT Me 410 HORNISSE (12 replies, to: 10/9/2018 8:02 AM)
  166. Scanzorosciate 2018 (3 replies, to: 10/8/2018 12:24 PM)
  167. MIRAGE 2000 (4 replies, to: 10/4/2018 7:05 PM)
  168. DORNIER DO-217 J-1 ITALY (5 replies, to: 9/26/2018 5:03 PM)
  169. HEINKEL HE 219 UHU (16 replies, to: 9/21/2018 12:43 PM)
  170. MARSUPIALE (29 replies, to: 7/12/2018 1:39 PM)
  171. JUNKERS JU-88 REGIA A. e non...... (19 replies, to: 6/26/2018 2:44 AM)
  172. MYASISHCHYEV M-50 BOUNDER (33 replies, to: 6/14/2018 6:36 PM)
  173. FIAT CR 32 (Cristiano Rosatelli) (4 replies, to: 4/29/2018 9:44 PM)
  174. UNO STUKA FASCISTA CATTURATO (15 replies, to: 4/22/2018 9:23 AM)
  175. HELLCAT TRUMPETER IN 32 (70 replies, to: 4/19/2018 5:49 PM)
  176. J2M RAIDEN CAPTURED (9 replies, to: 4/17/2018 9:29 AM)
  177. F86K sabre dog (26 replies, to: 4/11/2018 7:21 PM)
  178. CAMS 37 LIA (7 replies, to: 4/8/2018 11:21 PM)
  179. KAWASAKI KI-32 MARY (8 replies, to: 4/7/2018 8:40 AM)
  180. TUPOLEV TU-2 (5 replies, to: 3/31/2018 4:33 PM)
  181. P-51D ITALY 1955 (8 replies, to: 3/23/2018 2:01 PM)
  182. SPITFIRE Mk V Aboukir (2 replies, to: 3/17/2018 2:30 PM)
  183. AVIATIK (BERG) DI 1918 (13 replies, to: 3/13/2018 9:33 PM)
  184. CAPRONI Ca 311 (6 replies, to: 3/13/2018 6:06 PM)
  185. S. SHUCHERT D.III (12 replies, to: 2/13/2018 3:58 PM)
  186. KOR-1 (14 replies, to: 2/6/2018 2:24 PM)
  187. VAMPIRE ITALY (10 replies, to: 2/4/2018 2:06 PM)
  188. SPIT GERMANY (10 replies, to: 1/27/2018 11:57 PM)
  189. SUPERMARINE S6B (14 replies, to: 1/11/2018 4:43 PM)
  190. FW 190D CAPTURED (1 reply, to: 12/22/2017 6:25 PM)
  191. P-40N CAPTURED (2 replies, to: 12/22/2017 11:28 AM)
  192. HARRICANE CAPTURED (3 replies, to: 12/16/2017 10:44 PM)
  193. P39 (38 replies, to: 12/16/2017 6:09 PM)
  194. P-47 CAPTURED (4 replies, to: 12/7/2017 9:16 AM)
  195. SHINMAYWA PS-1 (6 replies, to: 11/22/2017 8:20 AM)
  196. C-48 SKYTRAIN (7 replies, to: 11/17/2017 2:25 PM)
  197. AVIA S-199ovveroBF-109G-10 (8 replies, to: 10/27/2017 8:29 AM)
  198. BF 109E-4 (12 replies, to: 10/25/2017 9:27 AM)
  199. F-IREY SWORDFISH IDRO (15 replies, to: 10/19/2017 9:56 PM)
  200. MIG-15 IRACHENO (7 replies, to: 10/19/2017 8:33 AM)
Questa è la versione 'lo-fi' del Forum Per visualizzare la versione completa click here
Tutti gli orari sono GMT+01:00. Adesso sono le 11:33 PM.
Copyright © 2000-2021 FFZ srl - www.freeforumzone.com